Home > Weather > Périgueux > Past weeks

Flag for France Past Weather in Périgueux, Aquitaine, France — Yesterday and Last 2 Weeks

Now
63 °F

Sunny.


Feels Like: 63 °F
Forecast: 62 / 83 °F
Wind: 6 mph from West

Location: Bergerac Airport

Current Time: Jul 25, 2016 at 8:23:44 AM

Latest Report: Jul 25, 2016 at 8:00 AM


Visibility: 10 mi

Pressure: 30.15 "Hg

Humidity: 94%

Dew Point: 61 °F

Location of PérigueuxLocation

Past Weather in Périgueux — Graph

°F

Périgueux Temperature Yesterday

Maximum temperature yesterday: 84 °F (at 3:30 PM)
Minimum temperature yesterday: 59 °F (at 5:00 AM)
Average temperature yesterday: 71 °F

High & Low Weather Summary for the Past Weeks

 TemperatureHumidityPressure
High99 °F (Jul 19, 4:00 PM)100% (Jul 10, 7:30 AM)30.36 "Hg (Jul 10, 7:30 AM)
Low45 °F (Jul 15, 5:30 AM)20% (Jul 18, 6:00 PM)29.92 "Hg (Jul 19, 5:00 PM)
Average70 °F67%30.11 "Hg
* Reported Jul 10 7:00 AM — Jul 25 7:00 AM, Périgueux, Weather by CustomWeather, © 2016

Note: Actual official high and low records may vary slightly from our data, if they occured in-between our weather recording intervals... More about our weather records

Advertising

Périgueux Weather History for the Previous 24 Hours

Scroll right to see more
 ConditionsComfort  
Time TempWeatherWind HumidityBarometerVisibility
7:00 AM
Mon, Jul 25
59 °FClear.3 mph94%30.15 "Hg10 mi
6:30 AM59 °FClear.5 mph94%30.15 "Hg10 mi
6:00 AM59 °FClear.3 mph94%30.15 "Hg10 mi
5:30 AM59 °FClear.3 mph94%30.15 "Hg10 mi
5:00 AM61 °FClear.5 mph88%30.15 "Hg10 mi
4:30 AM61 °FClear.5 mph88%30.15 "Hg10 mi
4:00 AM61 °FClear.3 mph88%30.15 "Hg10 mi
3:30 AM61 °FClear.5 mph88%30.15 "Hg10 mi
3:00 AM61 °FClear.5 mph88%30.15 "Hg10 mi
2:30 AM63 °FClear.5 mph83%30.18 "Hg10 mi
2:00 AM64 °FClear.7 mph83%30.18 "Hg10 mi
1:30 AM64 °FClear.6 mph78%30.18 "Hg10 mi
1:00 AM64 °FClear.5 mph83%30.18 "Hg10 mi
12:30 AM66 °FClear.6 mph73%30.18 "Hg10 mi
12:00 AM68 °FClear.7 mph73%30.18 "Hg10 mi
11:30 PM
Sun, Jul 24
70 °FClear.8 mph69%30.18 "Hg10 mi
11:00 PM70 °FClear.8 mph69%30.15 "Hg10 mi
10:30 PM73 °FSunny.9 mph65%30.15 "Hg10 mi
10:00 PM73 °FSunny.7 mph65%30.15 "Hg10 mi
9:30 PM75 °FSunny.7 mph61%30.12 "Hg10 mi
9:00 PM79 °FSunny.8 mph54%30.12 "Hg10 mi
8:30 PM81 °FSunny.12 mph51%30.12 "Hg10 mi
8:00 PM81 °FSunny.12 mph51%30.12 "Hg10 mi
7:30 PM82 °FSunny.12 mph48%30.12 "Hg10 mi
7:00 PM82 °FPassing clouds.10 mph48%30.12 "HgN/A
6:30 PM84 °FSunny.13 mph43%30.12 "Hg10 mi
6:00 PM84 °FPassing clouds.7 mph45%30.12 "HgN/A
5:30 PM84 °FPassing clouds.7 mph40%30.12 "HgN/A
5:00 PM84 °FSunny.7 mph45%30.12 "Hg10 mi
4:30 PM81 °FPassing clouds.7 mph48%30.12 "HgN/A
4:00 PM82 °FPassing clouds.9 mph48%30.12 "HgN/A
3:30 PM84 °FPassing clouds.8 mph45%30.15 "HgN/A
3:00 PM82 °FPassing clouds.8 mph48%30.15 "HgN/A
2:30 PM81 °FSunny.6 mph51%30.15 "Hg10 mi
2:00 PM81 °FPassing clouds.6 mph51%30.15 "HgN/A
1:30 PM79 °FPassing clouds.6 mph58%30.18 "HgN/A
1:00 PM77 °FPassing clouds.6 mph57%30.18 "HgN/A
12:30 PM75 °FPassing clouds.8 mph61%30.18 "HgN/A
12:00 PM73 °FPassing clouds.6 mph65%30.18 "HgN/A
11:30 AM73 °FPassing clouds.6 mph65%30.18 "HgN/A
11:00 AM72 °FPassing clouds.6 mph69%30.18 "HgN/A
10:30 AM70 °FPassing clouds.3 mph73%30.18 "HgN/A
10:00 AM68 °FPassing clouds.5 mph73%30.18 "HgN/A
9:30 AM64 °FScattered clouds.6 mph83%30.18 "HgN/A
9:00 AM63 °FPartly sunny.9 mph88%30.18 "HgN/A
8:30 AM63 °FScattered clouds.6 mph88%30.18 "HgN/A
8:00 AM61 °FSunny.5 mph94%30.18 "Hg10 mi
Weather by CustomWeather, © 2016

See weather overviewHow to use our weather pages